Orbital Elements at Epoch 2459200.5 (2020-Dec-17.0) TDB
Reference: JPL 33 (heliocentric ecliptic J2000)
Element | Value | Uncertainty (1-sigma) | Units |
e | .1947730466498802 | 3.7145e-08 | |
a | 2.588865877370553 | 9.2473e-09 | au |
q | 2.084624583067175 | 9.6164e-08 | au |
i | 3.605840475657822 | 4.0046e-06 | deg |
node | 157.1432600588905 | 6.7708e-05 | deg |
peri | 68.29549815089568 | 6.8436e-05 | deg |
M | 326.4276423473108 | 1.2098e-05 | deg |
tp | 2459342.386832692710 (2021-May-07.88683269) | 5.1471e-05 | TDB |
period | 1521.467759214225 4.17 | 8.1519e-06 2.232e-08 | d yr |
n | .2366136237983282 | 1.2678e-09 | deg/d |
Q | 3.093107171673931 | 1.1048e-08 | au |
|
| | Orbit Determination Parameters
Additional Information
|